Timeline UpdatesTrip UpdatesNews PostsPvt PostsTravel TipsAdmin PostsConv PostsFollowed PostsChat RequestsBlog PostsPNR Posts

Disclaimer
Search
 
 
Mon Jul 28, 2014 11:44:12 ISTHomeTrainsΣChainsAtlasPNRForumGalleryNewsFAQTripsMembersLoginFeedback
No Recent News for this Train
Other Trains in the News **new
Latest...
Will stop at Ramanagaram, according to IRCTC
Tue Mar 11, 2014 (07:35PM)
⇐ Return Journey: Train# 16209

16210/Mysore-Ajmer Express

Mar 11 2014 (10:33AM)
Change Departure Station:
Change Arrival Station:
Post a Train Travel TipPost a Train Travel Tip **new
Post a Comment/Question/Picture/VideoPost a Comment/Question/Picture/Video
Pantry/Catering
✓ Pantry Car Avbl
✓ Catering Avbl
RSA - Rake Sharing
16217/16218 Mysore-Shirdi Express
Rake/Coach Composition
LOCO-SLR-GEN-GEN-A1-A2-B1-B2-S1-S2-S3-PC-S4-S5-S6-S7-S8-S9-S10-S11-S12-S13-GEN-SLR; Total 23 coaches
Loco
UBL WDP-4/4B No Loco Change at Pune / Ahmedabad
News    PNR    Forum    Time-Table    Availability    Fare Chart    Map    Arr/Dep History    Trips    Gallery    ΣChains    X/O    Timeline    
Travel Time: 2h 13m    1 halts    Distance: 95 km    Avg Speed: 42 km/hr
Type: Mail/Express
Zone: SWR/South Western
Departs @ 04:45 (Avg 35m late)
Platform# ???
   W F 
Haveri/HVR 
Arrives @ 06:58 (Avg 34m late)
Platform# 1
   W F 
Dharwad/DWR 

1 halts. 13 intermediate Stations between Haveri and Dharwad

Show ALL intermediate Stations  Show Old Time-Table

#CodeStation NameX/OArrivesAvgDepartsAvgHaltPFDay#KmSpeedElevZoneAddress
1MYSMysore Junction (6)  -18:00+051-532.054760mSWRTel No 0821-2521751.URL: www.mysorerailwaystation.in, Karnataka
2MYAMandya (3)  18:49+2418:50+251m--1-487.753672mSWRMandya, Karnataka
3RMGMRamanagaram (4)X  19:45+1619:46+151m21-439.124692mSWRRamanagaram, Karnataka
4SBCBangalore City Junction (10)O  21:35+521:55+520m81-394.834903mSWRBengaluru-560023, Karnataka
5YPRYesvantpur Junction (6)22:05+822:07+82m--1-389.269919mSWRBengaluru 560022, Karnataka
6TKTumkur (3)  23:03+723:05+82m11-325.271823mSWRTumkur, Karnataka
7TTRTiptur (4)  00:05+1400:06+151m22-254.239860mSWRTiptur, Karnataka
8ASKArsikere Junction (3)  00:45+200:50+85m--2-228.756816mSWRArsikere, Karnataka
9RRBBirur Junction (3)  01:38+601:40+82m--2-183.764802mSWRBirur, Karnataka
10DVGDavangere (2)  03:27+3403:30+323m--2-68.743598mSWRDavanagere, Karnataka
11HRRHarihar (3)  03:48+3303:50+332m--2-55.958553mSWRHarihar, Karnataka
12RNRRanibennur (3)  04:14+3404:15+341m--2-32.567583mSWRRanebennur, Karnataka
13HVR»Haveri (3)»  04:44+3404:45+351m--20.045558mSWRHaveri, Karnataka
14UBLHubli Junction (5)  06:25+1606:35+2910m1275.152640mSWRHubli - 580020, Karnataka
15DWR•Dharwad (4)•  06:58+3407:00+342m1295.251737mSWRDharwad 580001, Karnataka
16LDLonda Junction (3)  08:23+3708:25+392m22165.644643mSWRLonda, Karnataka
17BGMBelgaum (3)X  09:35+3709:40+395m12216.946752mSWRBelgaum 590001, Karnataka
18MRJMiraj Junction (6)  12:40+1112:45+255m12354.337554mCRMiraj 416410, Maharashtra
19SLISangli (3)  12:57+2813:00+293m12361.669559mCRSangli, Maharashtra
20KRDKarad (3)  13:59+3014:00+321m12429.659597mCRDist- Satara., Maharashtra
21STRSatara (3)  15:00+3315:03+343m12488.240637mCRSatara, Maharashtra
22PUNEPune Junction (6)  18:40+818:50+1310m32633.955556mCRPune 411001, Maharashtra
23LNLLonavala (3)  19:59+1020:00+161m22697.535623mCRLonavala 410401, Maharashtra
24KJTKarjat Junction (4)X  20:49+1820:50+201m22726.25657mCRKarjat, Maharashtra
25KYNKalyan Junction (8)  21:40+1921:45+165m72773.04510mCRKalyan 421301, Maharashtra
26BIRDBhiwandi Road (4)  22:09+2222:10+241m42791.04126mCRBhiwandi, Maharashtra
27BSRVasai Road (7)  22:50+1822:55+185m62818.3647mWRThane-401202, Maharashtra
28VAPIVapi (3)X  00:49+2400:50+251m--3939.46327mWRVapi, Gujarat
29BLValsad (3)X  01:15+2401:16+301m23965.64615mWRValsad, Gujarat
30STSurat (4)  02:45+802:55+610m131034.37919mWRSurat 395001, Gujarat
31BHBharuch Junction (5)  03:40+1503:41+161m331093.67419mWRBharuch, Gujarat
32BRCVadodara Junction (7)  04:38+2604:55+2417m231164.16536mWRVadodara 390005, Gujarat
33ANNDAnand Junction (6)  05:28+4205:29+421m--31199.96944mWRAnand, Gujarat
34NDNadiad Junction (4)X  05:45+3505:46+351m--31218.44637mWRNadiad, Gujarat
35ADIAhmedabad Junction (12)  06:45+3307:05+3820m331263.93351mWRAhmedabad, Gujarat
36MSHMahesana Junction (6)  09:19+1509:20+181m231336.95095mWRMehsana, Gujarat
37PNUPalanpur Junction (5)  10:38+610:40+152m131401.949216mWRPalanpur, Gujarat
38ABRAbu Road (3)XO  11:45+3111:55+3510m231454.566264mNWRSirohi Dist, Rajasthan
39SOHSirohi Road (2)  12:35+3412:36+371m--31498.465369mNWRPindwara, Rajasthan
40FAFalna (2)  13:27+4413:28+461m131553.464282mNWRFalna, Rajasthan
41MJMarwar Junction (4)  14:30+4014:32+432m--31619.966267mNWRMarwar Junction, Rajasthan
42SODSojat Road (2)  14:51+4714:52+491m--31640.845295mNWRSojat Road, Rajasthan
43BERBeawar (2)  16:20+2116:21+231m--31707.345447mNWRBeawar, Rajasthan
44AIIAjmer Junction (5)  17:30+18-331759.5-464mNWRPin: 305001, Rajasthan
Scroll to Top
Scroll to Bottom